SCP
0 0 0 0 0 0 0 0 0 0 0 0 0 0 0 0 0 0 0 0 0 0 0 0 0 0 0 0 0 0 0 0 0 0 0 0 0 0 0 0 0 0 0 0
0 0 0 0 0 0 0 0 0 0 0 0 0 0 0 0 0 0 0 0 0 0 0 0 0 0 0 0 0 0 0 0 0 0 0 0 0 0 0 0 0 0 0 0
0 0 0 0 0 0 0 0 0 0 0 0 0 0 0 0 0 0 0 0 0 0 0 0 0 0 0 0 0 0 0 0 0 0 0 0 0 0 0 0 0 0 0 0
0 0 0 0 0 0 0 0 0 0 0 0 0 0 0 0 0 0 0 0 0 0 0 0 0 0 0 0 0 0 0 0 0 0 0 0 0 0 0 0 0 0 0 0
0 0 0 0 0 0 0 0 0 0 0 0 0 0 0 0 0 0 0 0 0 0 0 0 0 0 0 0 0 0 0 0 0 0 0 0 0 0 0 0 0 0 0 0
0 0 0 0 0 0 0 0 0 0 0 0 0 0 0 0 0 0 0 0 0 0 0 0 0 0 0 0 0 0 0 0 0 0 0 0 0 0 0 0 0 0 0 0
0 0 0 0 0 0 0 0 0 0 0 0 0 0 0 0 0 0 0 0 0 0 0 0 0 0 0 0 0 0 0 0 0 0 0 0 0 0 0 0 0 0 0 -0
0 0 0 0 0 0 0 0 0 0 0 0 0 0 0 0 0 0 0 0 0 0 0 0 0 0 0 0 0 0 0 0 0 0 0 0 0 0 0 0 0 0 0 -0
0 0 0 0 0 0 0 0 0 0 0 0 0 0 0 0 0 0 0 0 0 0 0 0 0 0 0 0 0 0 0 0 0 0 0 0 0 0 0 0 0 0 0 0
-0 -0 0 0 0 0 0 0 0 0 0 0 0 0 0 0 0 0 0 0 0 0 0 0 0 0 0 0 0 0 0 0 0 0 0 0 0 0 0 0 0 0 0 -0
0 0 0 0 0 0 0 0 0 0 0 0 0 0 0 0 0 0 0 0 0 0 0 0 0 0 0 0 0 0 0 0 0 0 0 0 0 0 -0 0 -0 0 0 -0
0 0 0 0 0 0 0 0 0 0 0 0 0 0 0 0 0 0 0 0 0 0 0 0 0 0 0 0 0 0 0 0 0 0 0 0 0 -0 -0 -0 0 0 -0 0
0 0 0 0 0 0 0 0 0 0 0 0 0 0 0 0 0 0 0 0 0 0 0 0 0 0 0 0 0 -0 0 0 0 0 0 0 -0 0 -0 -0 -0 -0 -0 0
0 0 0 0 0 0 0 0 0 0 0 0 0 0 0 0 0 0 0 0 0 0 0 0 0 0 0 0 0 0 0 0 0 0 0 0 0 0 0 0 0 -0 -0 -0
-0 -0 -0 0 0 0 0 0 0 0 0 0 0 0 -0 0 0 0 0 0 0 0 0 0 0 0 0 0 0 0 0 0 0 0 0 0 0 0 0 0 0 0 0 0
-0 0 0 0 0 0 0 0 0 0 0 0 0 0 0 0 0 0 0 0 0 0 0 0 0 0 0 0 0 0 0 0 0 0 0 0 0 0 0 0 0 0 0 0
-0 -0 0 0 0 0 0 0 -0 -0 0 -0 -0 -0 0 0 0 -0 0 0 0 -0 0 -0 0 0 0 -0 -0 -0 0 0 0 0 -0 -0 0 -0 0 0 0 0 0 0
-0 -0 0 0 0 -0 0 0 0 0 0 0 -0 0 0 0 0 -0 -0 -0 0 0 -0 0 0 0 0 -0 -0 -0 0 -0 -0 -0 -0 0 0 0 0 0 0 0 0 0
0 0 0 0 0 0 0 0 0 0 0 0 0 -0 -0 -0 0 -0 0 -0 0 -0 -0 0 0 0 0 -0 -0 -0 -0 -0 -0 -0 -0 0 0 0 0 0 0 0 0 0
0 0 0 0 0 -0 -0 0 0 0 0 0 0 0 0 -0 -0 0 -0 -0 -0 0 -0 -0 0 -0 -0 -0 -0 -0 0 0 0 0 0 0 0 0 0 0 0 -0 -0 -0
0 0 0 0 -0 0 0 0 0 0 0 0 0 0 0 0 0 0 -0 -0 -0 0 0 0 -0 -0 0 -0 0 0 0 0 0 0 0 0 0 0 0 -0 -0 -0 0 -0
0 0 0 -0 0 0 0 0 0 0 0 0 0 0 0 0 0 0 0 0 -0 0 -0 -0 0 0 0 0 0 0 0 0 0 0 0 0 0 0 0 -0 0 0 -0 -0
0 0 0 0 0 0 0 0 -0 -0 0 0 0 0 0 0 0 0 0 0 0 -0 0 0 0 0 0 0 0 0 0 0 0 0 0 0 0 -0 -0 -0 0 0 0 -0
0 -0 0 0 0 0 0 0 0 0 0 0 0 0 0 0 0 0 0 0 0 0 0 -0 0 0 -0 0 0 0 0 0 0 0 0 -0 -0 -0 -0 -0 -0 -0 -0 0
0 -0 0 -0 -0 -0 0 0 0 0 0 0 0 0 0 0 0 0 0 0 -0 -0 -0 -0 0 0 0 0 0 0 0 0 0 0 0 -0 -0 -0 -0 0 -0 -0 -0 -0
0 0 0 -0 0 0 0 0 0 0 0 0 0 0 0 0 0 0 0 0 0 0 -0 0 0 0 0 0 0 0 0 0 0 0 0 -0 -0 0 0 0 0 0 0 0
0 0 0 -0 0 0 0 0 0 0 0 0 0 0 -0 0 0 0 0 0 0 0 0 -0 0 0 0 0 0 0 0 0 0 0 0 -0 -0 0 0 0 0 0 0 0
Wind_Speed_500mb
113 101 111 127 131 129 95 36 9 69 81 10 8 10 17 16 19 12 8 8 11 5 6 6 9 3 8 21 14 8 5 2 6 14 20 21 18 22 16 7 19 11 9 26
104 106 127 138 131 112 75 23 33 64 59 9 12 16 17 19 31 31 21 22 22 12 7 6 7 1 15 23 9 7 6 4 8 19 7 16 10 11 22 19 3 26 13 15
136 147 144 128 112 70 58 27 10 18 28 8 14 17 11 16 16 13 26 11 8 7 7 6 6 4 6 13 20 29 14 8 11 18 19 17 25 40 41 26 15 26 31 39
147 135 115 107 61 53 23 14 7 16 10 6 17 9 24 23 12 9 13 5 8 9 6 2 4 5 10 16 5 6 11 12 12 22 24 25 30 42 36 34 37 40 45 49
113 102 109 71 56 44 53 16 15 15 15 23 21 13 12 23 18 13 16 7 6 14 7 4 2 5 4 8 5 8 4 7 7 28 25 30 40 48 44 48 48 52 48 53
99 100 85 57 58 51 45 40 47 21 21 7 8 7 10 16 19 13 19 17 9 12 14 17 8 6 8 7 5 4 5 2 3 18 21 22 21 46 33 42 44 47 45 44
87 78 67 47 50 40 39 37 24 17 8 10 13 20 14 21 20 15 17 14 10 12 13 12 12 13 17 23 23 24 14 11 5 16 16 17 34 14 27 34 38 41 35 37
75 65 55 49 38 41 40 26 22 14 7 11 15 14 14 13 23 10 10 15 15 15 17 7 7 7 7 17 35 30 27 20 8 13 20 26 43 19 23 30 45 35 23 35
63 59 51 45 42 42 31 35 25 20 9 2 15 11 13 7 6 6 8 9 25 17 6 6 6 6 5 8 8 18 24 33 20 12 9 12 32 23 45 35 36 24 18 11
57 50 45 45 44 35 32 30 25 24 14 16 7 6 11 14 12 6 9 10 11 15 4 4 5 10 6 10 17 18 8 4 20 19 12 11 4 24 44 10 13 36 35 28
40 35 36 42 36 27 18 24 18 23 11 24 19 14 19 13 14 8 7 9 3 5 4 6 6 7 8 8 11 10 6 4 6 5 4 11 7 5 3 13 40 38 44 42
43 39 37 33 31 24 21 30 17 17 15 8 8 9 9 10 7 12 17 12 7 3 5 2 2 4 2 5 7 1 4 7 4 5 7 30 33 16 14 27 29 24 45 49
35 32 30 28 28 28 24 23 15 10 11 5 5 13 13 18 18 13 12 11 12 8 7 5 6 7 4 6 9 6 9 10 7 5 9 22 39 13 9 2 1 11 25 39
34 33 30 28 29 29 25 23 16 12 10 4 5 4 13 11 20 30 29 20 16 9 8 8 6 4 7 6 9 13 12 13 11 20 24 24 37 46 25 20 17 19 20 25
28 26 25 23 22 19 20 17 10 6 8 2 7 10 12 12 19 20 22 29 29 22 11 6 7 8 4 8 9 20 14 17 6 17 37 22 37 46 52 51 40 33 31 19
28 27 26 25 23 15 12 10 11 4 7 5 4 7 10 12 23 32 31 26 30 33 11 9 14 28 9 5 8 15 32 37 44 28 48 48 25 42 42 38 36 36 41 41
27 26 27 29 28 17 13 8 13 18 14 5 6 7 7 13 18 23 26 26 30 33 27 20 28 30 28 11 27 54 45 56 63 58 47 24 30 21 33 33 39 39 38 30
28 26 23 20 17 17 13 13 6 6 4 1 0 7 5 4 10 5 15 32 36 16 19 14 10 18 16 11 23 42 39 25 33 32 32 24 26 39 45 35 35 40 42 39
19 17 13 11 8 7 4 2 3 7 5 3 1 2 5 4 5 8 9 13 1 16 8 8 11 6 11 20 27 47 47 20 26 37 34 35 34 31 35 33 28 31 34 40
13 10 8 6 3 2 5 6 1 1 4 5 4 7 4 3 3 4 3 11 5 4 10 14 8 9 36 43 46 43 39 37 29 34 28 34 35 37 33 25 28 31 36 35
4 2 4 7 4 3 0 3 4 7 4 11 11 13 5 4 3 3 6 5 5 4 7 7 5 6 3 13 28 20 24 26 29 30 33 38 36 33 37 36 32 34 34 38
8 5 4 2 3 5 4 6 5 7 6 14 6 11 13 6 9 3 7 5 3 9 9 3 5 3 3 19 17 10 17 20 21 18 21 32 37 34 33 32 35 39 42 41
4 2 2 1 6 4 7 7 3 1 2 5 4 2 9 10 11 6 2 3 8 8 4 6 4 13 3 16 8 10 20 26 29 33 28 27 31 29 25 31 35 35 35 32
3 5 5 6 6 7 5 3 6 4 2 14 12 8 10 11 6 5 4 8 3 6 3 8 5 16 6 6 13 22 29 31 29 26 28 29 30 31 30 28 34 36 35 32
5 5 7 11 21 18 20 14 7 15 17 18 10 6 11 5 6 5 5 5 7 9 8 3 17 16 8 12 23 28 25 29 31 28 29 30 29 27 30 25 34 32 29 26
6 10 7 18 8 12 6 11 11 21 7 6 1 3 4 9 5 8 12 6 5 7 6 19 19 20 22 25 24 24 27 29 28 26 27 27 25 27 24 24 32 28 22 17
9 12 27 34 23 18 23 22 16 17 2 3 1 6 12 2 5 6 2 2 3 11 19 21 30 27 27 27 31 24 28 27 28 28 26 21 22 24 17 20 27 26 21 12
Wind_Direction_500mb
209 199 199 181 166 163 154 128 125 155 157 144 177 170 157 142 143 126 77 108 168 226 122 341 21 39 60 33 61 63 19 287 286 263 286 303 292 283 269 167 275 232 244 260
196 186 177 166 163 156 146 105 101 161 166 175 168 157 148 155 171 163 169 180 204 179 163 153 196 228 61 58 81 97 4 340 343 306 270 235 257 321 318 321 257 274 294 280
170 165 160 156 150 143 129 119 127 139 201 251 149 140 147 149 169 178 163 149 117 122 177 172 156 138 67 41 115 131 127 189 197 243 268 318 294 295 299 294 268 286 269 282
150 151 150 141 143 130 108 95 109 140 160 163 147 126 159 155 130 130 117 128 165 158 168 223 226 222 38 14 22 159 160 201 234 265 285 298 290 285 289 282 275 274 286 283
142 145 137 133 117 101 82 94 107 70 110 123 130 156 160 172 154 149 165 158 137 95 116 125 58 59 125 227 352 17 323 262 272 277 282 280 284 281 280 279 281 276 280 280
136 143 150 122 94 99 92 102 114 98 147 127 104 151 147 173 166 206 164 155 130 152 194 200 161 60 324 264 221 192 227 219 90 271 284 305 293 263 270 266 267 266 269 283
134 144 139 117 99 100 107 108 103 89 142 150 177 178 186 200 174 135 165 153 115 69 65 41 3 318 275 249 242 216 231 218 163 263 298 260 251 267 247 259 273 277 268 286
127 133 133 111 111 109 113 106 110 106 136 147 174 160 185 113 97 87 75 66 90 94 68 50 11 323 324 246 245 239 217 228 239 228 240 269 292 255 267 265 275 282 244 266
124 130 126 123 116 115 114 97 111 101 94 203 156 165 154 101 88 76 125 135 130 111 112 93 170 229 264 298 296 218 226 224 220 243 235 231 276 10 342 307 279 16 9 307
124 132 142 133 116 119 127 102 104 114 89 58 131 101 150 147 115 116 71 97 92 139 100 124 193 248 279 253 270 280 284 306 203 229 242 256 250 351 347 321 283 333 324 303
121 129 131 133 126 116 115 109 99 123 96 62 69 97 93 82 113 116 97 80 291 59 108 147 211 242 232 276 276 283 268 207 224 254 211 272 349 352 146 252 307 310 330 313
122 125 128 131 129 119 110 103 111 108 92 102 84 124 160 116 112 146 146 125 49 111 85 12 17 344 68 217 263 264 279 203 300 263 239 291 296 229 268 291 302 343 342 322
119 122 125 124 119 106 100 95 83 86 70 49 312 283 245 224 191 173 159 201 210 180 171 145 228 236 161 213 248 272 287 295 244 208 242 288 316 224 249 10 19 303 341 321
102 103 107 111 118 112 98 89 78 71 77 65 33 89 189 216 217 223 219 221 227 225 226 170 219 215 248 236 256 277 248 306 270 286 289 331 309 304 260 261 279 294 311 314
102 107 111 117 126 135 111 125 137 145 125 124 319 301 230 179 205 208 215 225 220 226 174 190 229 233 261 245 241 255 208 248 224 268 283 268 279 302 301 290 296 303 292 298
101 108 113 113 120 121 121 83 52 10 129 61 9 319 236 216 212 223 226 229 242 229 194 213 223 230 237 257 259 243 260 278 286 284 291 294 311 307 318 337 333 320 302 301
94 100 110 114 112 88 77 110 111 80 67 42 338 298 9 226 246 233 226 238 250 246 231 227 252 256 251 253 262 274 280 279 279 285 290 301 312 316 314 309 312 305 302 305
101 102 105 115 91 91 89 107 91 82 62 267 131 276 341 237 218 242 247 233 234 233 245 239 221 255 210 250 254 266 273 306 310 300 308 297 290 295 301 309 304 308 308 304
97 102 107 106 88 57 76 154 304 208 135 339 229 193 255 160 259 250 241 219 207 232 199 212 196 198 226 245 289 294 297 303 311 317 299 285 302 308 312 321 305 302 307 313
96 101 50 75 61 75 95 39 106 168 138 232 225 265 272 309 274 267 250 194 222 239 229 181 194 247 245 246 255 272 281 284 292 301 315 322 319 319 317 318 301 303 295 308
44 48 83 111 136 85 188 183 215 176 227 215 232 220 224 270 137 245 262 245 235 251 248 164 228 259 196 297 254 264 268 271 278 285 291 294 295 306 310 310 299 289 290 293
61 32 57 4 245 221 192 216 215 207 232 179 194 229 219 210 186 158 273 237 295 250 151 125 259 216 189 227 227 264 288 295 306 296 298 300 310 312 306 300 299 297 295 293
41 82 360 153 192 250 202 211 212 158 209 240 280 306 175 176 196 220 290 278 237 302 48 230 214 78 268 243 224 286 306 314 313 314 314 317 315 309 308 303 308 309 305 299
268 200 233 197 223 248 204 134 134 85 279 319 301 163 202 200 172 212 215 241 32 311 267 239 156 151 225 351 319 319 328 331 334 333 327 324 319 317 315 319 323 315 310 307
267 233 234 217 235 272 294 312 326 324 317 302 285 230 189 201 216 213 224 315 252 212 241 296 118 106 77 338 331 335 343 337 332 328 327 325 324 323 321 329 333 326 320 315
248 239 262 255 302 280 280 303 319 327 332 340 265 252 249 227 210 207 210 226 209 356 324 52 35 19 356 348 346 343 333 337 334 331 328 328 333 331 330 332 336 338 336 339
234 242 239 255 286 270 276 291 300 315 157 238 186 210 226 204 235 230 309 51 27 337 352 4 353 343 341 350 345 340 338 339 343 344 343 342 338 337 337 332 338 353 350 346
Wind_Speed_850mb
113 101 111 127 131 129 95 36 9 69 81 10 8 10 17 16 19 12 8 8 11 5 6 6 9 3 8 21 14 8 5 2 6 14 20 21 18 22 16 7 19 11 9 26
104 106 127 138 131 112 75 23 33 64 59 9 12 16 17 19 31 31 21 22 22 12 7 6 7 1 15 23 9 7 6 4 8 19 7 16 10 11 22 19 3 26 13 15
136 147 144 128 112 70 58 27 10 18 28 8 14 17 11 16 16 13 26 11 8 7 7 6 6 4 6 13 20 29 14 8 11 18 19 17 25 40 41 26 15 26 31 39
147 135 115 107 61 53 23 14 7 16 10 6 17 9 24 23 12 9 13 5 8 9 6 2 4 5 10 16 5 6 11 12 12 22 24 25 30 42 36 34 37 40 45 49
113 102 109 71 56 44 53 16 15 15 15 23 21 13 12 23 18 13 16 7 6 14 7 4 2 5 4 8 5 8 4 7 7 28 25 30 40 48 44 48 48 52 48 53
99 100 85 57 58 51 45 40 47 21 21 7 8 7 10 16 19 13 19 17 9 12 14 17 8 6 8 7 5 4 5 2 3 18 21 22 21 46 33 42 44 47 45 44
87 78 67 47 50 40 39 37 24 17 8 10 13 20 14 21 20 15 17 14 10 12 13 12 12 13 17 23 23 24 14 11 5 16 16 17 34 14 27 34 38 41 35 37
75 65 55 49 38 41 40 26 22 14 7 11 15 14 14 13 23 10 10 15 15 15 17 7 7 7 7 17 35 30 27 20 8 13 20 26 43 19 23 30 45 35 23 35
63 59 51 45 42 42 31 35 25 20 9 2 15 11 13 7 6 6 8 9 25 17 6 6 6 6 5 8 8 18 24 33 20 12 9 12 32 23 45 35 36 24 18 11
57 50 45 45 44 35 32 30 25 24 14 16 7 6 11 14 12 6 9 10 11 15 4 4 5 10 6 10 17 18 8 4 20 19 12 11 4 24 44 10 13 36 35 28
40 35 36 42 36 27 18 24 18 23 11 24 19 14 19 13 14 8 7 9 3 5 4 6 6 7 8 8 11 10 6 4 6 5 4 11 7 5 3 13 40 38 44 42
43 39 37 33 31 24 21 30 17 17 15 8 8 9 9 10 7 12 17 12 7 3 5 2 2 4 2 5 7 1 4 7 4 5 7 30 33 16 14 27 29 24 45 49
35 32 30 28 28 28 24 23 15 10 11 5 5 13 13 18 18 13 12 11 12 8 7 5 6 7 4 6 9 6 9 10 7 5 9 22 39 13 9 2 1 11 25 39
34 33 30 28 29 29 25 23 16 12 10 4 5 4 13 11 20 30 29 20 16 9 8 8 6 4 7 6 9 13 12 13 11 20 24 24 37 46 25 20 17 19 20 25
28 26 25 23 22 19 20 17 10 6 8 2 7 10 12 12 19 20 22 29 29 22 11 6 7 8 4 8 9 20 14 17 6 17 37 22 37 46 52 51 40 33 31 19
28 27 26 25 23 15 12 10 11 4 7 5 4 7 10 12 23 32 31 26 30 33 11 9 14 28 9 5 8 15 32 37 44 28 48 48 25 42 42 38 36 36 41 41
27 26 27 29 28 17 13 8 13 18 14 5 6 7 7 13 18 23 26 26 30 33 27 20 28 30 28 11 27 54 45 56 63 58 47 24 30 21 33 33 39 39 38 30
28 26 23 20 17 17 13 13 6 6 4 1 0 7 5 4 10 5 15 32 36 16 19 14 10 18 16 11 23 42 39 25 33 32 32 24 26 39 45 35 35 40 42 39
19 17 13 11 8 7 4 2 3 7 5 3 1 2 5 4 5 8 9 13 1 16 8 8 11 6 11 20 27 47 47 20 26 37 34 35 34 31 35 33 28 31 34 40
13 10 8 6 3 2 5 6 1 1 4 5 4 7 4 3 3 4 3 11 5 4 10 14 8 9 36 43 46 43 39 37 29 34 28 34 35 37 33 25 28 31 36 35
4 2 4 7 4 3 0 3 4 7 4 11 11 13 5 4 3 3 6 5 5 4 7 7 5 6 3 13 28 20 24 26 29 30 33 38 36 33 37 36 32 34 34 38
8 5 4 2 3 5 4 6 5 7 6 14 6 11 13 6 9 3 7 5 3 9 9 3 5 3 3 19 17 10 17 20 21 18 21 32 37 34 33 32 35 39 42 41
4 2 2 1 6 4 7 7 3 1 2 5 4 2 9 10 11 6 2 3 8 8 4 6 4 13 3 16 8 10 20 26 29 33 28 27 31 29 25 31 35 35 35 32
3 5 5 6 6 7 5 3 6 4 2 14 12 8 10 11 6 5 4 8 3 6 3 8 5 16 6 6 13 22 29 31 29 26 28 29 30 31 30 28 34 36 35 32
5 5 7 11 21 18 20 14 7 15 17 18 10 6 11 5 6 5 5 5 7 9 8 3 17 16 8 12 23 28 25 29 31 28 29 30 29 27 30 25 34 32 29 26
6 10 7 18 8 12 6 11 11 21 7 6 1 3 4 9 5 8 12 6 5 7 6 19 19 20 22 25 24 24 27 29 28 26 27 27 25 27 24 24 32 28 22 17
9 12 27 34 23 18 23 22 16 17 2 3 1 6 12 2 5 6 2 2 3 11 19 21 30 27 27 27 31 24 28 27 28 28 26 21 22 24 17 20 27 26 21 12
Wind_Direction_850mb
209 199 199 181 166 163 154 128 125 155 157 144 177 170 157 142 143 126 77 108 168 226 122 341 21 39 60 33 61 63 19 287 286 263 286 303 292 283 269 167 275 232 244 260
196 186 177 166 163 156 146 105 101 161 166 175 168 157 148 155 171 163 169 180 204 179 163 153 196 228 61 58 81 97 4 340 343 306 270 235 257 321 318 321 257 274 294 280
170 165 160 156 150 143 129 119 127 139 201 251 149 140 147 149 169 178 163 149 117 122 177 172 156 138 67 41 115 131 127 189 197 243 268 318 294 295 299 294 268 286 269 282
150 151 150 141 143 130 108 95 109 140 160 163 147 126 159 155 130 130 117 128 165 158 168 223 226 222 38 14 22 159 160 201 234 265 285 298 290 285 289 282 275 274 286 283
142 145 137 133 117 101 82 94 107 70 110 123 130 156 160 172 154 149 165 158 137 95 116 125 58 59 125 227 352 17 323 262 272 277 282 280 284 281 280 279 281 276 280 280
136 143 150 122 94 99 92 102 114 98 147 127 104 151 147 173 166 206 164 155 130 152 194 200 161 60 324 264 221 192 227 219 90 271 284 305 293 263 270 266 267 266 269 283
134 144 139 117 99 100 107 108 103 89 142 150 177 178 186 200 174 135 165 153 115 69 65 41 3 318 275 249 242 216 231 218 163 263 298 260 251 267 247 259 273 277 268 286
127 133 133 111 111 109 113 106 110 106 136 147 174 160 185 113 97 87 75 66 90 94 68 50 11 323 324 246 245 239 217 228 239 228 240 269 292 255 267 265 275 282 244 266
124 130 126 123 116 115 114 97 111 101 94 203 156 165 154 101 88 76 125 135 130 111 112 93 170 229 264 298 296 218 226 224 220 243 235 231 276 10 342 307 279 16 9 307
124 132 142 133 116 119 127 102 104 114 89 58 131 101 150 147 115 116 71 97 92 139 100 124 193 248 279 253 270 280 284 306 203 229 242 256 250 351 347 321 283 333 324 303
121 129 131 133 126 116 115 109 99 123 96 62 69 97 93 82 113 116 97 80 291 59 108 147 211 242 232 276 276 283 268 207 224 254 211 272 349 352 146 252 307 310 330 313
122 125 128 131 129 119 110 103 111 108 92 102 84 124 160 116 112 146 146 125 49 111 85 12 17 344 68 217 263 264 279 203 300 263 239 291 296 229 268 291 302 343 342 322
119 122 125 124 119 106 100 95 83 86 70 49 312 283 245 224 191 173 159 201 210 180 171 145 228 236 161 213 248 272 287 295 244 208 242 288 316 224 249 10 19 303 341 321
102 103 107 111 118 112 98 89 78 71 77 65 33 89 189 216 217 223 219 221 227 225 226 170 219 215 248 236 256 277 248 306 270 286 289 331 309 304 260 261 279 294 311 314
102 107 111 117 126 135 111 125 137 145 125 124 319 301 230 179 205 208 215 225 220 226 174 190 229 233 261 245 241 255 208 248 224 268 283 268 279 302 301 290 296 303 292 298
101 108 113 113 120 121 121 83 52 10 129 61 9 319 236 216 212 223 226 229 242 229 194 213 223 230 237 257 259 243 260 278 286 284 291 294 311 307 318 337 333 320 302 301
94 100 110 114 112 88 77 110 111 80 67 42 338 298 9 226 246 233 226 238 250 246 231 227 252 256 251 253 262 274 280 279 279 285 290 301 312 316 314 309 312 305 302 305
101 102 105 115 91 91 89 107 91 82 62 267 131 276 341 237 218 242 247 233 234 233 245 239 221 255 210 250 254 266 273 306 310 300 308 297 290 295 301 309 304 308 308 304
97 102 107 106 88 57 76 154 304 208 135 339 229 193 255 160 259 250 241 219 207 232 199 212 196 198 226 245 289 294 297 303 311 317 299 285 302 308 312 321 305 302 307 313
96 101 50 75 61 75 95 39 106 168 138 232 225 265 272 309 274 267 250 194 222 239 229 181 194 247 245 246 255 272 281 284 292 301 315 322 319 319 317 318 301 303 295 308
44 48 83 111 136 85 188 183 215 176 227 215 232 220 224 270 137 245 262 245 235 251 248 164 228 259 196 297 254 264 268 271 278 285 291 294 295 306 310 310 299 289 290 293
61 32 57 4 245 221 192 216 215 207 232 179 194 229 219 210 186 158 273 237 295 250 151 125 259 216 189 227 227 264 288 295 306 296 298 300 310 312 306 300 299 297 295 293
41 82 360 153 192 250 202 211 212 158 209 240 280 306 175 176 196 220 290 278 237 302 48 230 214 78 268 243 224 286 306 314 313 314 314 317 315 309 308 303 308 309 305 299
268 200 233 197 223 248 204 134 134 85 279 319 301 163 202 200 172 212 215 241 32 311 267 239 156 151 225 351 319 319 328 331 334 333 327 324 319 317 315 319 323 315 310 307
267 233 234 217 235 272 294 312 326 324 317 302 285 230 189 201 216 213 224 315 252 212 241 296 118 106 77 338 331 335 343 337 332 328 327 325 324 323 321 329 333 326 320 315
248 239 262 255 302 280 280 303 319 327 332 340 265 252 249 227 210 207 210 226 209 356 324 52 35 19 356 348 346 343 333 337 334 331 328 328 333 331 330 332 336 338 336 339
234 242 239 255 286 270 276 291 300 315 157 238 186 210 226 204 235 230 309 51 27 337 352 4 353 343 341 350 345 340 338 339 343 344 343 342 338 337 337 332 338 353 350 346